Location: Bogis-Bossey
(46.3500°N, 6.1667°E)
Time: 16:58:47
(UTC+00:00)

Cosmos 1441 Rocket - Pass Details

Date: 17 August 2022
Orbit: 491 x 533 km, 81.1° (Epoch: 30 September)

Event Time Altitude Azimuth Distance (km) Brightness Sun altitude
Rises 20:54:14 0° 345° (NNW) 2,601 7.8 -19.9°
Reaches altitude 10° 20:56:23 10° 342° (NNW) 1,707 6.8 -20.1°
Maximum altitude 21:00:04 60° 262° (W) 572 3.5 -20.5°
Enters shadow 21:00:50 47° 212° (SSW) 661 3.5 -20.6°
